Location: Unspecified
(0.0000°N, 0.0000°E)
Time: 05:59:04
(UTC+00:00)

Cosmos 2251 Rocket - Pass Details

Date: 27 January 2013
Orbit: 764 x 793 km, 74.0° (Epoch: 27 June)

Event Time Altitude Azimuth Distance (km) Brightness Sun altitude
Rises 18:30:10 0° 353° (N) 3,268 6.6 -4.1°
Reaches altitude 10° 18:32:34 10° 355° (N) 2,339 5.9 -4.7°
Maximum altitude 18:37:51 68° 78° (ENE) 840 3.5 -5.9°
Drops below altitude 10° 18:43:07 10° 160° (SSE) 2,330 6.0 -7.2°
Sets 18:45:30 0° 163° (SSE) 3,255 6.8 -7.7°
